DW7322 Weather Reports


Display with metric or nautical units.
time (UTC)temp
F
wind
direction
speed
MPH
gust
MPH
rain 1hr
in
rain 24hr
in
rain mn
in
humidity
%
barometer
mb
20260510211525 66 283 0.0 4.0 0.00 0.00 0.00 29 1019.1
20260510210025 65 276 0.0 4.0 0.00 0.00 0.00 31 1019.0
20260510204544 66 318 0.0 2.0 0.00 0.00 0.00 28 1019.1
20260510203013 65 8 1.0 3.0 0.00 0.00 0.00 28 1019.3
20260510201537 66 273 0.0 5.0 0.00 0.00 0.00 29 1019.5
20260510200117 66 21 0.0 6.0 0.00 0.00 0.00 32 1019.6
20260510194559 65 25 2.0 6.0 0.00 0.00 0.00 31 1019.5
20260510193037 65 314 2.0 6.0 0.00 0.00 0.00 30 1019.3
20260510191551 65 224 0.0 3.0 0.00 0.00 0.00 35 1019.5
20260510190103 63 257 0.0 6.0 0.00 0.00 0.00 36 1019.7
20260510184503 65 310 0.0 4.0 0.00 0.00 0.00 33 1019.6
20260510183040 64 302 2.0 5.0 0.00 0.00 0.00 32 1019.6
20260510181543 63 278 0.0 6.0 0.00 0.00 0.00 35 1019.7
20260510180105 64 288 0.0 4.0 0.00 0.00 0.00 32 1019.5
20260510174545 64 283 1.0 5.0 0.00 0.00 0.00 32 1019.8
20260510173009 63 312 0.0 4.0 0.00 0.00 0.00 32 1020.0
20260510171523 62 314 0.0 0.0 0.00 0.00 0.00 29 1019.9
20260510170048 62 299 0.0 0.0 0.00 0.00 0.00 33 1020.0
20260510164543 62 322 0.0 0.0 0.00 0.00 0.00 34 1019.9
20260510163041 62 326 0.0 0.0 0.00 0.00 0.00 38 1019.7
20260510161507 61 321 0.0 0.0 0.00 0.00 0.00 35 1019.5
20260510160037 62 286 0.0 0.0 0.00 0.00 0.00 36 1019.5
20260510154529 61 314 0.0 0.0 0.00 0.00 0.00 37 1019.4
20260510153049 61 280 0.0 0.0 0.00 0.00 0.00 37 1019.4
20260510151511 61 312 0.0 0.0 0.00 0.00 0.00 38 1019.4
20260510150005 60 257 0.0 0.0 0.00 0.00 0.00 40 1019.3
20260510144526 59 331 0.0 0.0 0.00 0.00 0.00 36 1019.3
20260510143036 58 76 0.0 0.0 0.00 0.00 0.00 39 1019.4
20260510141559 57 120 0.0 0.0 0.00 0.00 0.00 37 1019.3
20260510140114 57 201 0.0 0.0 0.00 0.00 0.00 40 1019.1
20260510134505 56 193 0.0 0.0 0.00 0.00 0.00 44 1019.0
20260510133035 55 127 0.0 0.0 0.00 0.00 0.00 47 1018.8
20260510131537 54 198 0.0 5.0 0.00 0.00 0.00 47 1018.7
20260510130058 52 45 0.0 5.0 0.00 0.00 0.00 51 1018.5
20260510124547 50 104 1.0 5.0 0.00 0.00 0.00 52 1018.5
20260510123009 49 124 0.0 3.0 0.00 0.00 0.00 56 1018.3
20260510121525 48 117 0.0 1.0 0.00 0.00 0.00 60 1018.0
20260510120049 46 25 0.0 1.0 0.00 0.00 0.00 64 1017.8
20260510114539 45 25 0.0 0.0 0.00 0.00 0.00 67 1017.6
20260510113057 44 359 0.0 0.0 0.00 0.00 0.00 69 1017.3
20260510113007 44 359 0.0 0.0 0.00 0.00 0.00 69 1017.2
20260510111524 43 360 0.0 1.0 0.00 0.00 0.00 69 1017.1
20260510110045 43 359 0.0 0.0 0.00 0.00 0.00 69 1017.2
20260510104535 43 359 0.0 1.0 0.00 0.00 0.00 69 1016.8
20260510103047 43 1 0.0 0.0 0.00 0.00 0.00 69 1016.5
20260510101509 44 1 0.0 1.0 0.00 0.00 0.00 68 1016.4
20260510100125 44 1 0.0 1.0 0.00 0.00 0.00 68 1016.2
20260510094523 44 1 0.0 0.0 0.00 0.00 0.00 67 1016.0
20260510093043 44 360 0.0 1.0 0.00 0.00 0.00 67 1015.8
20260510091511 44 360 0.0 0.0 0.00 0.00 0.00 68 1015.9
20260510090004 44 360 0.0 1.0 0.00 0.00 0.00 68 1015.9
20260510084521 45 360 0.0 0.0 0.00 0.00 0.00 66 1015.9
20260510083033 46 360 0.0 1.0 0.00 0.00 0.00 65 1015.6
20260510081557 46 4 0.0 1.0 0.00 0.00 0.00 63 1015.4
20260510080119 47 11 0.0 3.0 0.00 0.00 0.00 61 1015.1
20260510074521 48 68 0.0 4.0 0.00 0.00 0.00 60 1014.8
20260510073035 48 357 0.0 6.0 0.00 0.00 0.00 61 1014.6
20260510071604 47 357 0.0 3.0 0.00 0.00 0.00 65 1014.2
20260510070105 45 314 0.0 1.0 0.00 0.00 0.00 73 1014.1
20260510064556 46 314 0.0 1.0 0.00 0.00 0.00 76 1013.7
20260510063011 47 314 0.0 1.0 0.00 0.00 0.00 75 1013.5
20260510061529 47 314 0.0 0.0 0.00 0.00 0.00 72 1013.4
20260510060051 47 314 0.0 0.0 0.00 0.00 0.00 73 1013.3
20260510054543 47 314 0.0 0.0 0.00 0.00 0.00 74 1013.2
20260510053051 47 314 0.0 0.0 0.00 0.00 0.00 72 1012.9
20260510051519 48 314 0.0 0.0 0.00 0.00 0.00 73 1012.7
20260510050127 48 314 0.0 0.0 0.00 0.00 0.00 71 1012.6
20260510044509 48 314 0.0 0.0 0.00 0.00 0.00 70 1012.3
20260510043028 48 314 0.0 0.0 0.00 0.00 0.00 69 1012.0
20260510041550 49 314 0.0 0.0 0.00 0.00 0.00 65 1011.7
20260510040117 50 314 0.0 0.0 0.00 0.00 0.00 64 1011.4
20260510034609 51 314 0.0 0.0 0.00 0.00 0.00 64 1011.2
20260510033023 53 314 0.0 0.0 0.00 0.00 0.00 60 1011.0
20260510031551 53 314 0.0 1.0 0.00 0.00 0.00 61 1010.8
20260510030103 53 314 0.0 0.0 0.00 0.00 0.00 61 1010.6
20260510024501 53 314 0.0 0.0 0.00 0.00 0.00 60 1010.4
20260510023021 54 314 0.0 0.0 0.00 0.00 0.00 57 1010.1
20260510021539 56 314 0.0 0.0 0.00 0.00 0.00 52 1009.7
20260510020101 57 314 0.0 1.0 0.00 0.00 0.00 50 1009.2
20260510014559 58 314 0.0 1.0 0.00 0.00 0.00 52 1008.9
20260510013013 59 314 0.0 1.0 0.00 0.00 0.00 48 1008.5
20260510011525 61 314 0.0 0.0 0.00 0.00 0.00 48 1008.2
20260510010041 62 315 0.0 1.0 0.00 0.00 0.00 46 1007.8
20260510004533 64 322 0.0 3.0 0.00 0.00 0.00 41 1007.6
20260510003052 65 323 0.0 3.0 0.00 0.00 0.00 40 1007.2
20260510001509 66 301 0.0 4.0 0.00 0.00 0.00 40 1006.8
20260510000001 67 310 2.0 4.0 0.00 0.00 0.00 38 1006.5
20260509234524 68 297 0.0 4.0 0.00 0.00 0.00 40 1006.3
20260509233037 69 311 2.0 5.0 0.00 0.00 0.00 35 1006.1
20260509231505 70 309 1.0 6.0 0.00 0.00 0.00 37 1005.8
20260509230117 71 307 3.0 8.0 0.00 0.00 0.00 32 1005.6
20260509224513 72 297 3.0 7.0 0.00 0.00 0.00 33 1005.5
20260509223042 72 279 2.0 6.0 0.00 0.00 0.00 31 1005.4
20260509221508 73 340 2.0 6.0 0.00 0.00 0.00 33 1005.1
20260509220127 73 319 0.0 7.0 0.00 0.00 0.00 37 1005.1
20260509214526 73 347 3.0 6.0 0.00 0.00 0.00 35 1004.9
20260509213041 73 293 4.0 7.0 0.00 0.00 0.00 32 1004.9